Pinedale, WY

2:37 AM MST on February 23, 2017 (GMT -0700)
Wenz

Weather History for KPNA - April, 2014

Change the Weather History Date:

Thursday, April 24, 2014

  Actual Average (KBPI) Record (KBPI)
Temperature  
Mean Temperature 32 °F -  
Max Temperature 46 °F 51 °F 76 °F (2012)
Min Temperature 19 °F 23 °F 12 °F (2011)
Degree Days  
Heating Degree Days 32    
Moisture  
Dew Point 23 °F    
Average Humidity 69    
Maximum Humidity 100    
Minimum Humidity 39    
Precipitation  
Precipitation 0.00 in - - ()
Sea Level Pressure  
Sea Level Pressure 30.03 in    
Wind  
Wind Speed 4 mph (NW)    
Max Wind Speed 22 mph    
Max Gust Speed 30 mph    
Visibility 10 miles    
Events      
Averages and records for this station are not official NWS values.
T = Trace of Precipitation, MM = Missing Value Source: NWS Daily Summary

Daily Weather History Graph

Daily Weather History Graph

Search for Another Location

Airport or City:

Trip Planner

Search our weather history database for the weather conditions in past years. The results will help you decide how hot, cold, wet, or windy it might be!

Date:

Astronomy

Apr. 24, 2014 Rise Set
Actual Time 6:23 AM MDT 8:11 PM MDT
Civil Twilight 5:53 AM MDT 8:42 PM MDT
Nautical Twilight 5:16 AM MDT 9:19 PM MDT
Astronomical Twilight 4:36 AM MDT 9:59 PM MDT
Moon 3:43 AM MDT (4/24) 3:24 PM MDT (4/24)
Length of Visible Light 14h 48m
Length of Day
13h 48m
Waning Crescent, 24% of the Moon is Illuminated
Apr 24
Waning Crescent
Apr 29
New
May 6
First Quarter
May 14
Full
May 21
Last Quarter

Hourly Weather History & Observations

Time (MDT) Temp. Windchill Dew Point Humidity Pressure Visibility Wind Dir Wind Speed Gust Speed Precip Events Conditions
12:15 AM 24.8 °F - 21.2 °F 86% 30.05 in 10.0 mi Calm Calm - N/A   Scattered Clouds
12:35 AM 24.8 °F 19.1 °F 21.2 °F 86% 30.05 in 10.0 mi West 4.6 mph - N/A   Scattered Clouds
12:55 AM 23.0 °F 17.0 °F 19.4 °F 86% 30.05 in 10.0 mi WNW 4.6 mph - N/A   Scattered Clouds
1:15 AM 21.2 °F 14.9 °F 21.2 °F 100% 30.05 in 10.0 mi West 4.6 mph - N/A   Clear
1:35 AM 21.2 °F - 21.2 °F 100% 30.05 in 10.0 mi Calm Calm - N/A   Clear
1:55 AM 23.0 °F 18.4 °F 21.2 °F 93% 30.05 in 10.0 mi NNW 3.5 mph - N/A   Clear
2:15 AM 21.2 °F - 19.4 °F 93% 30.05 in 10.0 mi Calm Calm - N/A   Scattered Clouds
2:40 AM 23.0 °F - 21.2 °F 93% 30.04 in 10.0 mi Calm Calm - N/A   Scattered Clouds
2:50 AM 23.0 °F 18.4 °F 19.4 °F 86% 30.04 in 10.0 mi NW 3.5 mph - N/A   Scattered Clouds
3:15 AM 19.4 °F 14.3 °F 17.6 °F 93% 30.03 in 10.0 mi West 3.5 mph - N/A   Clear
3:55 AM 21.2 °F 16.4 °F 19.4 °F 93% 30.03 in 10.0 mi WNW 3.5 mph - N/A   Scattered Clouds
4:15 AM 19.4 °F 14.3 °F 19.4 °F 100% 30.05 in 10.0 mi West 3.5 mph - N/A   Scattered Clouds
4:35 AM 21.2 °F - 19.4 °F 93% 30.04 in 10.0 mi Calm Calm - N/A   Mostly Cloudy
4:55 AM 23.0 °F - 21.2 °F 93% 30.04 in 10.0 mi Calm Calm - N/A   Overcast
5:15 AM 21.2 °F - 21.2 °F 100% 30.04 in 10.0 mi Calm Calm - N/A   Overcast
5:35 AM 21.2 °F - 21.2 °F 100% 30.04 in 10.0 mi Calm Calm - N/A   Overcast
5:55 AM 23.0 °F - 21.2 °F 93% 30.05 in 10.0 mi Calm Calm - N/A   Overcast
6:15 AM 23.0 °F - 21.2 °F 93% 30.05 in 10.0 mi Calm Calm - N/A   Overcast
6:35 AM 23.0 °F - 21.2 °F 93% 30.05 in 10.0 mi Calm Calm - N/A   Overcast
6:55 AM 23.0 °F - 23.0 °F 100% 30.05 in 10.0 mi Calm Calm - N/A   Overcast
7:15 AM 24.8 °F 19.1 °F 23.0 °F 93% 30.06 in 10.0 mi East 4.6 mph - N/A   Overcast
7:35 AM 26.6 °F 22.6 °F 23.0 °F 86% 30.07 in 10.0 mi ESE 3.5 mph - N/A   Overcast
7:55 AM 26.6 °F - 23.0 °F 86% 30.07 in 10.0 mi Calm Calm - N/A   Overcast
8:15 AM 28.4 °F 24.6 °F 23.0 °F 80% 30.07 in 10.0 mi East 3.5 mph - N/A   Overcast
8:35 AM 30.2 °F - 23.0 °F 75% 30.07 in 10.0 mi Calm Calm - N/A   Overcast
8:55 AM 30.2 °F 26.7 °F 23.0 °F 75% 30.07 in 10.0 mi ESE 3.5 mph - N/A   Overcast
9:15 AM 32.0 °F 28.7 °F 23.0 °F 69% 30.07 in 10.0 mi East 3.5 mph - N/A   Overcast
9:35 AM 32.0 °F - 23.0 °F 69% 30.06 in 10.0 mi Calm Calm - N/A   Overcast
9:55 AM 33.8 °F 30.8 °F 23.0 °F 65% 30.06 in 10.0 mi East 3.5 mph - N/A   Overcast
10:15 AM 35.6 °F - 23.0 °F 60% 30.06 in 10.0 mi Calm Calm - N/A   Overcast
10:35 AM 35.6 °F - 21.2 °F 56% 30.06 in 10.0 mi Calm Calm - N/A   Overcast
10:55 AM 37.4 °F 33.8 °F 21.2 °F 52% 30.05 in 10.0 mi ESE 4.6 mph - N/A   Mostly Cloudy
11:15 AM 41.0 °F - 23.0 °F 49% 30.05 in 10.0 mi Calm Calm - N/A   Scattered Clouds
11:35 AM 42.8 °F 39.3 °F 23.0 °F 46% 30.03 in 10.0 mi NE 5.8 mph - N/A   Scattered Clouds
11:55 AM 41.0 °F 39.0 °F 19.4 °F 42% 30.03 in 10.0 mi NNW 3.5 mph - N/A   Mostly Cloudy
12:15 PM 42.8 °F 39.3 °F 21.2 °F 42% 30.01 in 10.0 mi East 5.8 mph - N/A   Mostly Cloudy
12:35 PM 42.8 °F 38.0 °F 19.4 °F 39% 30.01 in 10.0 mi WSW 8.1 mph - N/A   Overcast
12:55 PM 42.8 °F 38.6 °F 19.4 °F 39% 30.00 in 10.0 mi West 6.9 mph - N/A   Overcast
1:15 PM 42.8 °F 40.1 °F 19.4 °F 39% 29.99 in 10.0 mi WSW 4.6 mph - N/A   Overcast
1:35 PM 42.8 °F 39.3 °F 19.4 °F 39% 29.98 in 10.0 mi SSW 5.8 mph - N/A   Overcast
1:55 PM 44.6 °F 38.4 °F 21.2 °F 39% 29.98 in 10.0 mi WSW 12.7 mph 16.1 mph N/A   Overcast
2:15 PM 42.8 °F - 19.4 °F 39% 29.98 in 10.0 mi Calm Calm - N/A   Overcast
2:35 PM 44.6 °F 41.4 °F 21.2 °F 39% 29.98 in 10.0 mi WNW 5.8 mph - N/A   Overcast
2:55 PM 44.6 °F 38.8 °F 21.2 °F 39% 29.98 in 10.0 mi WNW 11.5 mph 20.7 mph N/A   Overcast
3:15 PM 44.6 °F 39.2 °F 23.0 °F 43% 29.98 in 10.0 mi NW 10.4 mph - N/A   Overcast
3:35 PM 46.4 °F 40.1 °F 23.0 °F 40% 29.99 in 10.0 mi West 15.0 mph 19.6 mph N/A   Overcast
3:55 PM 46.4 °F 39.5 °F 23.0 °F 40% 29.99 in 10.0 mi West 17.3 mph 23.0 mph N/A   Mostly Cloudy
4:15 PM 46.4 °F 39.0 °F 23.0 °F 40% 29.99 in 10.0 mi West 19.6 mph 29.9 mph N/A   Mostly Cloudy
4:35 PM 46.4 °F 38.5 °F 23.0 °F 40% 29.99 in 10.0 mi WNW 21.9 mph 26.5 mph N/A   Scattered Clouds
4:55 PM 44.6 °F 38.4 °F 23.0 °F 43% 29.99 in 10.0 mi NW 12.7 mph 24.2 mph N/A   Mostly Cloudy
5:15 PM 42.8 °F 35.1 °F 24.8 °F 49% 30.00 in 10.0 mi WNW 16.1 mph - N/A   Overcast
5:55 PM 42.8 °F 35.4 °F 24.8 °F 49% 30.00 in 10.0 mi WNW 15.0 mph - N/A   Scattered Clouds
6:15 PM 42.8 °F 36.6 °F 26.6 °F 53% 30.00 in 10.0 mi WNW 11.5 mph - N/A   Clear
6:35 PM 42.8 °F 37.5 °F 26.6 °F 53% 30.00 in 10.0 mi NW 9.2 mph - N/A   Clear
6:55 PM 41.0 °F 36.4 °F 26.6 °F 57% 30.00 in 10.0 mi NNW 6.9 mph - N/A   Clear
7:15 PM 41.0 °F 37.1 °F 26.6 °F 57% 30.00 in 10.0 mi North 5.8 mph - N/A   Scattered Clouds
7:35 PM 41.0 °F 38.0 °F 26.6 °F 57% 30.00 in 10.0 mi NNE 4.6 mph - N/A   Mostly Cloudy
7:55 PM 41.0 °F 37.1 °F 26.6 °F 57% 30.00 in 10.0 mi North 5.8 mph - N/A   Scattered Clouds
8:15 PM 39.2 °F 37.0 °F 26.6 °F 61% 30.01 in 10.0 mi NNE 3.5 mph - N/A   Scattered Clouds
8:35 PM 37.4 °F - 26.6 °F 65% 30.01 in 10.0 mi Calm Calm - N/A   Scattered Clouds
8:55 PM 37.4 °F - 26.6 °F 65% 30.01 in 10.0 mi Calm Calm - N/A   Scattered Clouds
9:15 PM 35.6 °F - 26.6 °F 70% 30.01 in 10.0 mi Calm Calm - N/A   Scattered Clouds
9:35 PM 33.8 °F - 26.6 °F 75% 30.02 in 10.0 mi Calm Calm - N/A   Scattered Clouds
9:55 PM 33.8 °F - 26.6 °F 75% 30.02 in 10.0 mi Calm Calm - N/A   Overcast
10:15 PM 33.8 °F - 26.6 °F 75% 30.03 in 10.0 mi Calm Calm - N/A   Overcast
10:35 PM 30.2 °F - 24.8 °F 80% 30.02 in 10.0 mi Calm Calm - N/A   Overcast
10:55 PM 32.0 °F 28.7 °F 24.8 °F 75% 30.01 in 10.0 mi SW 3.5 mph - N/A   Overcast
11:15 PM 30.2 °F - 24.8 °F 80% 30.01 in 10.0 mi Calm Calm - N/A   Mostly Cloudy
11:35 PM 30.2 °F 26.7 °F 24.8 °F 80% 30.00 in 10.0 mi West 3.5 mph - N/A   Scattered Clouds
11:55 PM 28.4 °F 22.2 °F 24.8 °F 86% 30.00 in 10.0 mi West 5.8 mph - N/A   Scattered Clouds